Tracking 20719 objects as of 25-May-2020
HD Live streaming from Space Station
objects crossing your sky now

TDRS 10

Track TDRS 10 now!
TDRS 10 is classified as:


NORAD ID: 27566
Int'l Code: 2002-055A
Perigee: 35,755.4 km
Apogee: 35,832.8 km
Inclination: 6.9 °
Period: 1,436.1 minutes
Semi major axis: 42165 km
RCS: 5.0118 m2 (large)
Launch date: December 5, 2002
Source: United States (US)
Launch site: AIR FORCE EASTERN TEST RANGE (AFETR)

Tracking and communications with space shuttle, other missions.
aabbcc
Your satellite tracking list
Your tracking list is empty




NASA's NSSDC Master Catalog

Two Line Element Set (TLE):
1 27566U 02055A   20146.15659272 +.00000098 +00000-0 +00000-0 0  9995
2 27566 006.8682 053.7407 0009177 313.2387 121.3863 01.00270448064038
Source of the keplerian elements: AFSPC